Theta_e
306 305 303 308 315 317 319 320 322 323 329 328 332 342 346 355 356 358 355 351 353 361 361 362 362 362 361 361 360 359 359 358
303 301 307 311 317 319 318 320 323 325 322 337 347 345 350 357 356 357 354 350 358 360 360 361 361 360 360 360 360 359 358 358
300 302 306 312 317 319 318 318 322 324 321 332 347 352 355 356 357 355 353 354 355 359 360 360 361 360 359 359 359 359 358 357
298 301 306 309 315 318 318 320 320 321 322 329 350 351 354 356 357 355 353 355 354 359 359 359 360 359 359 358 357 357 358 357
301 302 304 308 314 314 316 318 318 322 322 336 344 353 355 356 357 356 355 353 353 352 356 359 359 359 359 358 357 357 356 356
301 301 303 309 310 314 315 316 324 323 319 323 343 353 355 354 355 355 354 352 351 351 349 349 353 359 359 358 358 357 356 355
301 302 304 310 308 312 316 315 320 323 326 342 350 351 351 350 350 352 351 351 350 349 349 347 346 354 358 358 357 357 354 353
305 307 305 308 308 309 311 311 314 321 339 346 350 347 344 344 344 347 349 350 350 350 351 350 346 351 347 350 352 352 351 349
305 307 307 306 307 310 310 309 312 313 329 342 346 345 343 343 344 345 349 350 350 352 354 352 349 348 345 344 344 349 353 354
306 307 305 304 308 307 309 312 316 321 326 341 344 344 341 343 344 346 348 350 351 353 355 354 352 352 350 346 346 345 347 354
308 307 306 306 305 306 308 312 321 317 331 339 343 346 346 346 347 346 347 350 351 355 356 355 356 353 352 351 348 345 347 349
307 307 307 304 305 307 309 313 313 316 315 325 339 344 347 347 344 346 348 350 352 354 357 356 356 357 354 354 352 349 345 345
303 306 305 307 302 303 309 312 312 314 316 324 330 343 346 347 346 346 348 352 354 354 357 357 356 356 355 354 352 347 345 348
301 303 305 305 298 305 309 310 310 312 313 322 331 339 346 347 348 349 349 350 353 352 355 356 357 356 353 352 350 346 344 344
296 304 303 303 300 305 309 309 309 311 313 320 331 339 345 346 347 348 349 349 350 352 350 352 357 355 353 354 347 345 343 341
294 301 302 301 301 305 308 308 308 310 312 317 330 338 344 346 346 348 349 350 350 349 351 352 352 352 347 346 344 343 342 342
297 301 301 299 301 303 307 307 308 309 311 314 329 339 346 347 347 347 348 348 350 349 353 352 346 341 339 338 340 343 347 350
298 300 300 300 299 303 306 307 308 309 311 314 328 338 344 346 346 346 347 348 350 350 351 351 345 345 344 345 346 350 354 356
296 299 300 300 298 300 305 307 309 310 313 315 326 337 342 344 345 347 347 348 349 350 351 350 351 351 353 353 353 348 342 345
298 296 290 300 291 299 302 303 306 309 311 319 328 335 341 344 345 346 348 350 351 350 350 350 354 354 355 346 346 347 339 343
Wind_Speed
7 16 22 20 17 19 16 6 6 3 3 5 4 4 6 8 19 23 20 20 18 18 19 21 18 18 18 18 17 15 13 12
14 23 29 28 18 13 18 10 7 5 7 5 4 1 4 15 21 22 21 19 21 16 17 19 20 19 18 17 17 15 13 13
20 29 28 19 23 9 16 16 8 5 3 2 4 4 10 18 20 22 21 19 20 17 16 17 18 18 18 16 16 15 13 12
24 26 28 26 16 16 17 13 10 9 4 2 4 8 12 17 20 21 19 19 19 17 17 16 17 17 18 16 15 14 13 12
25 24 28 26 18 20 21 18 13 3 5 5 7 9 13 18 19 19 19 18 17 18 16 15 15 16 16 15 14 13 12 10
27 23 28 19 17 20 21 19 16 2 7 8 11 13 16 19 19 19 19 19 18 16 17 15 14 13 14 14 13 12 11 10
29 28 20 16 19 19 20 22 12 14 10 5 18 16 19 19 19 18 17 18 19 18 16 16 16 14 13 14 13 12 11 9
19 21 15 22 14 15 19 22 24 15 9 11 19 18 20 22 20 21 20 19 18 17 17 15 12 14 13 12 11 10 9 9
20 18 14 18 19 15 20 20 22 25 18 16 18 18 19 19 19 19 18 16 18 15 14 15 12 11 7 8 7 7 8 7
19 15 15 22 20 20 23 18 12 13 21 19 20 21 21 20 20 20 20 18 17 16 13 13 10 9 9 7 7 7 8 8
21 19 18 18 24 17 21 20 5 7 3 15 18 19 20 18 17 17 19 18 17 16 14 12 11 9 8 7 7 7 8 9
17 23 22 18 20 21 19 15 13 11 10 14 17 19 19 19 18 18 18 18 17 16 15 14 12 11 9 8 8 8 7 8
23 20 25 19 23 30 21 23 22 16 11 9 14 19 21 21 21 19 17 17 18 17 17 15 13 11 10 9 9 8 8 9
21 25 22 18 30 26 24 23 17 15 12 9 12 18 20 21 20 20 19 19 18 16 17 16 13 11 9 9 9 8 8 9
23 20 22 24 23 22 26 23 22 17 14 11 11 16 17 20 20 21 20 20 19 17 16 16 13 10 10 10 8 9 9 9
23 21 26 31 24 11 14 16 21 20 18 13 12 17 19 19 19 19 19 19 17 15 15 15 12 9 9 9 9 8 8 9
18 22 20 29 25 24 13 10 20 20 20 16 15 15 16 18 18 19 18 15 21 17 15 13 12 11 11 9 8 8 7 8
18 18 23 17 27 26 25 18 13 18 21 19 16 15 17 18 18 18 19 20 18 20 19 14 10 8 6 8 8 7 5 3
20 22 24 14 20 24 28 21 17 14 18 20 19 18 18 19 19 18 18 19 18 19 18 15 13 9 7 6 4 5 6 6
23 17 15 20 12 22 26 24 23 19 19 20 19 18 18 19 19 19 17 15 16 17 17 15 15 12 10 9 9 8 6 7
Wind_Direction
224 229 237 236 210 228 232 178 225 253 241 331 84 109 125 101 158 152 151 151 146 158 150 142 145 142 139 139 140 139 145 142
241 231 230 241 245 202 239 222 232 238 254 135 47 60 112 148 157 149 155 154 140 153 152 146 146 143 140 141 138 141 145 138
226 238 244 231 249 211 235 226 198 183 200 241 108 107 135 151 156 160 154 152 151 150 151 146 145 143 139 139 139 141 143 142
229 229 238 239 223 227 236 214 203 218 232 72 112 148 148 154 162 160 152 147 146 150 150 149 148 145 140 141 142 139 142 141
242 235 235 228 201 239 236 229 218 210 231 92 172 140 153 158 162 153 155 156 156 159 152 149 149 148 141 142 143 140 136 132
241 237 244 234 226 218 243 231 244 224 230 208 161 157 152 162 163 160 161 154 160 159 161 165 158 146 143 142 139 134 129 132
234 230 245 239 240 218 238 249 229 219 249 72 142 158 159 163 167 168 169 162 165 165 162 169 161 153 147 144 139 132 137 133
247 251 228 250 229 232 217 230 228 224 118 142 151 164 172 172 172 173 173 169 166 170 164 165 159 155 173 162 171 176 173 166
241 255 276 258 248 233 230 232 220 219 188 166 165 173 179 182 176 177 172 173 169 170 168 169 163 170 169 169 166 171 167 175
271 233 244 246 253 234 236 234 262 217 224 171 179 180 183 185 175 177 177 177 169 170 175 182 159 178 169 172 169 172 173 173
240 253 239 251 244 244 232 233 142 101 174 186 189 187 184 184 177 180 176 174 174 170 176 179 178 176 178 168 179 165 167 179
239 236 248 241 245 236 234 231 221 216 215 203 196 188 184 179 176 183 179 175 172 173 184 179 195 171 178 183 155 177 173 169
233 240 236 243 252 239 230 216 219 222 215 227 199 186 187 182 179 182 179 172 168 184 188 186 192 183 191 175 171 177 174 172
227 219 233 223 247 227 224 230 212 214 201 216 199 188 186 187 181 179 176 177 171 182 183 183 191 195 192 172 183 179 176 172
236 212 215 209 244 245 210 221 223 217 212 201 193 188 187 188 181 181 181 177 178 178 182 185 185 188 193 173 189 184 183 179
223 219 211 221 228 253 211 220 228 224 219 202 196 193 186 192 183 182 183 180 176 177 183 176 175 186 188 182 190 186 186 189
233 223 216 225 228 225 221 212 221 216 212 209 194 188 188 187 182 183 180 170 183 173 182 183 170 187 179 185 182 190 197 184
220 223 229 230 225 235 223 236 227 218 208 204 184 179 182 185 184 181 183 184 180 183 181 180 179 187 169 181 184 187 184 191
228 213 213 227 231 213 226 223 229 226 210 199 190 180 181 183 183 182 188 188 184 185 181 182 166 177 170 127 150 107 91 95
262 202 192 217 214 204 217 217 222 206 199 193 191 182 182 181 183 187 189 185 183 185 179 180 178 184 171 183 182 124 131 125